sat.trackr.live / text

‹ back to catalog

STARLINK-4586

NORAD 53636 · 2022-104BA

PAYLOAD ACTIVE UNKNOWN

§ Identity

Operator
Country
US
Launch date
2022-08-28
Launch site
AFETR
Launch vehicle
Mass (kg)
RCS (m²)

Purposes: comms

External: N2YO · Heavens-Above · Gunter

§ Orbital elements

Epoch: 2026-09-20T23:11:20.797152Z

Period
93.85 min
Inclination
53.1650°
Eccentricity
0.0001183
Mean motion
15.34371216 rev/d
Perigee alt
462.0 km
Apogee alt
463.6 km
Semi-major
6,840.9 km
B*
6.7952e-5
RAAN
59.2372°
Arg perigee
76.3671°
Mean anomaly
283.7463°
Rev number
22,581

§ Raw data

STARLINK-45861 53636U 22104BA  26263.96621293  .00001918  00000+0  67952-4 0  99902 53636  53.1650  59.2372 0001183  76.3671 283.7463 15.34371216225810

JSON: /api/v1/satellites/53636 · /tle

For live sub-satellite position, see the globe view (requires WebGL).

§ Visibility from observer

Set your observer location to see the next 7 days of passes ≥ 10°. The values pass through the URL so the page stays shareable.

No JS? Fill the form by hand. The geolocation button needs JavaScript.